Simultaneous Nadir Overpasses (SNOs) Predictions

Prediction of SNOs between FY3D and AQUA Satellite Orbit:

Table of predicted SNOs for the next 14.0 days since TLE Epoch: 9/26/2020
Index Date (FY3D) Time (FY3D) Lat,Lon (FY3D) SZA (FY3D ) Date (AQUA) Time (AQUA) Lat,Lon (AQUA) SZA (AQUA ) Distance(km) Time Diff (sec)
1 09/28/2020 07:41:54 -53.42, 99.40 59.51 09/28/2020 07:42:39 -53.41, 99.37 59.58 1.76 45
2 09/28/2020 08:30:27 60.68, -88.83 113.86 09/28/2020 08:29:57 60.68, -88.80 113.89 1.41 30
3 09/30/2020 23:58:41 -51.97,-145.41 57.38 09/30/2020 23:59:31 -51.97,-145.43 57.46 1.12 50
4 10/01/2020 00:46:50 60.65, 27.07 114.78 10/01/2020 00:46:26 60.65, 27.05 114.82 1.01 24
5 10/03/2020 16:15:28 -50.57, -30.16 55.33 10/03/2020 16:16:23 -50.57, -30.17 55.42 0.89 55
6 10/03/2020 17:03:36 59.32, 142.04 116.88 10/03/2020 17:03:17 59.33, 142.05 116.91 0.59 19
7 10/06/2020 08:32:10 -49.45, 85.26 53.55 10/06/2020 08:33:10 -49.46, 85.24 53.66 1.21 60
8 10/06/2020 09:20:20 58.10,-102.85 118.86 10/06/2020 09:20:06 58.11,-102.82 118.87 1.81 14
9 10/06/2020 09:59:46 -77.39,-170.18 96.75 10/06/2020 09:58:33 -77.90,-167.69 96.38 82.18 73
10 10/09/2020 00:48:25 -49.82,-158.66 53.06 10/09/2020 00:49:31 -49.81,-158.73 53.15 5.08 66
11 10/09/2020 01:36:37 58.35, 13.23 119.50 10/09/2020 01:36:29 58.35, 13.20 119.53 1.53 8
